Regional Weather Roundup
Issued by NWS

Home | Current Version | Previous Version | Graphics & Text | Print | Product List | Glossary On
Versions: 1 2 3 4 5 6 7 8 9 10 11 12 13 14 15 16 17 18 19 20 21 22 23 24 25 26 27 28 29 30 31 32 33 34 35 36 37 38 39 40 41 42 43 44 45 46 47 48 49 50
000
ASUS45 KTFX 020119
RWRMT
MONTANA HOURLY WEATHER ROUNDUP
NATIONAL WEATHER SERVICE GREAT FALLS MT
719 PM MDT FRI AUG 1 2014

NOTE: "FAIR" INDICATES FEW OR NO CLOUDS BELOW 12000 FEET WITH NO
SIGNIFICANT WEATHER AND/OR OBSTRUCTIONS TO VISIBILITY.

* THESE STATIONS ARE NOT UNDER NWS QUALITY CONTROL. THEY DO NOT
   REPORT WEATHER SUCH AS PRECIPITATION OR FOG.

MTZ001>007-043-020200-
WEST OF THE DIVIDE
CITY           SKY/WX    TMP DP  RH WIND       PRES   REMARKS
KALISPELL      MOCLDY    88  54  31 E8        30.02S
MISSOULA       CLOUDY    88  39  18 VRB6      30.06R
BUTTE          CLOUDY    81  30  16 SW12      30.21S
MULLAN PASS    LGT RAIN  61  45  56 SE16G28   30.29R
* ESSEX        N/A      N/A N/A N/A N/A        N/A
* LINCOLN      N/A       87  38  18 NE9G16     N/A
* LOOKOUT PASS N/A       68  48  49 SE8G18     N/A
* POLSON       N/A       84  48  29 N2         N/A
* RONAN APT    CLOUDY    84  55  37 N7         N/A
* SEELEY LAKE  N/A       87  34  15 S5         N/A
* THOMP F APT  CLOUDY    70  43  38 NE8G20     N/A
$$

MTZ008-052>055-020200-
SOUTHWEST MONTANA
CITY           SKY/WX    TMP DP  RH WIND       PRES   REMARKS
BOZEMAN        CLOUDY    82  36  19 S9        30.14S
DILLON         CLOUDY    79  39  24 S10       30.17S
W YELLOWSTONE  CLOUDY    59  46  62 CALM      30.40R
* THREE FORKS  CLOUDY    86  50  29 N/A        N/A
* BOULDER HILL N/A       83  40  22 NE1        N/A
* MONIDA PASS  N/A       71  39  31 N5         N/A
* RAYNOLDS PAS N/A       59  41  51 SE21G27    N/A
* WHITEHALL    N/A       90  33  13 E4G9       N/A
* WISE RIVER   N/A       78  38  24 SE9G31     N/A
$$

MTZ009>010-012-014-046-048-049-054-020200-
EAST SLOPES AND CENTRAL MONTANA
CITY           SKY/WX    TMP DP  RH WIND       PRES   REMARKS
CUT BANK       CLOUDY    81  54  39 NE15      30.16R
GREAT FALLS    PTCLDY    90  39  17 NE10      30.10S
HELENA         MOCLDY    88  45  22 NE14      30.07F
MALMSTROM AFB  FAIR      88  37  16 NE16      30.10S
* CONRAD       CLOUDY    82  59  46 N/A        N/A   HI  82
* DEARBORN     N/A       88  40  18 N9G15      N/A
* EAST GLACIER N/A       70  54  57 E7         N/A
* MONARCH      N/A       78  40  26 NE8        N/A
* PENDROY      N/A       82  56  41 NE8        N/A   HI  82
* ROGERS PASS  N/A       81  37  21 S2G8       N/A
* SAINT MARY   N/A       67  53  61 S2G7       N/A
* SWEET GRASS  N/A       78  55  45 NE16       N/A
* WHITE SULPH  N/A       83  34  17 NE7G15     N/A
$$

MTZ011-013-016-021-035-040-045-047-050-051-020200-
NORTH CENTRAL MONTANA
CITY           SKY/WX    TMP DP  RH WIND       PRES   REMARKS
HAVRE          CLOUDY    82  52  35 N6        30.08F
LEWISTOWN      PTCLDY    88  36  16 N8        30.14F
* FORT BENTON  MOCLDY    90  45  21 NE9       30.06F
* CHESTER      N/A       72  58  62 NE9G19     N/A
* DENTON       N/A       90  46  22 VRB8       N/A
* GEYSER       N/A       87  45  23 NE12G17    N/A
* JUDITH GAP   N/A       84  45  26 VRB9G15    N/A
* LOMA         N/A       90  46  22 NE9        N/A
$$

MTZ017>020-022>027-061-062-020200-
NORTHEAST MONTANA
CITY           SKY/WX    TMP DP  RH WIND       PRES   REMARKS
GLASGOW        PTCLDY    88  55  33 S6        30.03F
GLENDIVE       CLEAR     84  55  37 E12       30.07S
JORDAN         MOCLDY    88  43  21 N9        30.06F
SIDNEY         CLEAR     84  54  36 NE8       30.06S
WOLF POINT     PTCLDY    90  48  24 E9        30.02F
* BEAVER HILL  N/A       82  58  44 E14        N/A   HI  82
* CIRCLE       N/A       88  54  31 E5         N/A
* LINDSAY DVD  N/A       85  52  32 NE6G14     N/A
* NAVAJO       N/A       83  56  40 S1         N/A   HI  82
$$

MTZ028>042-056>058-020200-
SOUTHCENTRAL AND SOUTHEAST MONTANA
CITY           SKY/WX    TMP DP  RH WIND       PRES   REMARKS
BAKER          CLEAR     86  52  31 NE14      30.06S
BILLINGS       PTCLDY    90  34  14 E10       30.11S
LIVINGSTON     MOCLDY    86  37  17 SE15      30.15S
MILES CITY     CLEAR     90  46  22 NE14      30.03S
* LAUREL APT   PTCLDY    88  43  21 NE7        N/A
* ROUNDUP APT  PTCLDY    90  37  15 NE9        N/A
* ALZADA       N/A       86  42  21 NW6        N/A
* HYSHAM       N/A       90  43  19 NE11       N/A
* LAME DEER    N/A       84  43  24 VRB8       N/A
* REED POINT   N/A       88  46  23 E7         N/A
* ROSCOE HILL  N/A       77  40  27 SW6G11     N/A
$$

REGIONAL REPORTS...DAKOTAS
CITY           SKY/WX    TMP DP  RH WIND       PRES   REMARKS
WILLISTON      CLEAR     82  54  38 SE7       30.05F
DICKINSON      CLEAR     79  59  50 NE13      30.05F
CROSBY         CLEAR     77  59  54 SW3       30.07S
TIOGA          CLEAR     75  59  58 SE5       30.11F
WATFORD CITY   CLEAR     79  55  44 E7        30.05S
BISMARCK       TSTM      64  61  90 SE25G43   30.05R VSB 3/4
GRAND FORKS    PTCLDY    79  59  50 E3        30.05S
FARGO          PTCLDY    77  57  50 N5        30.06R
BUFFALO SD     PTCLDY    84  52  33 NE13      29.99R
RAPID CITY     MOCLDY    79  48  34 SW7       30.05F
$$

REGIONAL REPORTS...WYOMING/IDAHO/WASHINGTON
CITY           SKY/WX    TMP DP  RH WIND       PRES   REMARKS
GILLETTE       MOCLDY    82  41  23 N18G24    30.15R
SHERIDAN       MOCLDY    81  46  29 SE3       30.12S
CODY           CLOUDY    70  46  42 SW17G22   30.27F
YELLOWSTONE LA CLOUDY    59  45  60 CALM      30.49S
SALMON         CLOUDY    75  46  36 SW8       30.14F
MULLAN PASS    LGT RAIN  61  45  56 SE16G28   30.29S
SAND POINT     CLOUDY    82  57  43 CALM      29.98S HI  82
SPOKANE        MOCLDY    93  34  12 NE7       29.97F
$$

REGIONAL REPORTS...ALBERTA
CITY           SKY/WX    TMP DP  RH WIND       PRES   REMARKS
CALGARY        MOCLDY    77  55  47 E16       30.18S
LETHBRIDGE     MOCLDY    79  59  50 E7        30.15S
MEDICINE HAT   PTCLDY    82  52  35 NE10G17   30.12S
EDMONTON       MOCLDY    70  59  68 E10       30.20S
WATERTON GATE  N/A       75  57  54 E7         N/A
CARDSTON       N/A       75  59  58 NE8        N/A
MILK RIVER     N/A       77  52  42 NE10       N/A
$$

REGIONAL REPORTS...SASKATCHEWAN
CITY           SKY/WX    TMP DP  RH WIND       PRES   REMARKS
SWIFT CURRENT  CLOUDY    64  57  78 NW9       30.15F
REGINA         TSTM      61  57  87 N8G21     30.13R
VAL MARIE      N/A       77  57  50 NE16G22    N/A
ASSINIBOIA     N/A       66  55  68 N13        N/A
CORONACH       N/A       68  46  45 W35G56     N/A

$$




USA.gov is the U.S. government's official web portal to all federal, state and local government web resources and services.